Flight Information

DEPARTURE
SAN LUIS OBISPO, CA
Elevation:
212
Runways:
7/25 - 2500x100 - ASPH-G
11/29 - 6101x150 - ASPH-G
ATIS:
120.6
Ground:
121.6
Tower:
124
DESTINATION
,
Elevation:
TPA:
1000 (est.)


6875.8 NM71° True-14° Var56° HDG

Flight Plan:
(click to file on line)

1. Type
2. Aircraft Identification
3. Aircraft Type / Special Equipment
4. True Airspeed
kts
5. Departure Airport
(ICAO code)
6. Arriving Airport
(ICAO code)
7. Cruising Altitude
ft
8. Alternate Airport
(ICAO code)
9. Route of Flight
10. Remarks


00:00:00 Departure ATIS: Destination ATIS:

Clearance Limit:
Route:
Altitude: Expect in minutes
Frequency:
Transponder: (7500 Hijack / 7600 Lost Comms / 7700 Emergency)


KSBP 211756Z VRB03KT 10SM CLR 26/11 A3007 RMK AO2 SLP180 T02610106 10261 20139 50002
Time: 2021-09-21T17:56:00Z
1632248431
Winds: variable
Visibility: 10.0 sm
Clouds (AGL): CLR
Temperature: 26.1 C
Dew Point: 10.6 C
Pressure: 30.070866 in Hgbr


Notes:

Data extracted from FAA Digital Chart Supplement. Effective: 0901Z Thursday, AUG 12, 2021 to 0901Z Thursday, OCT 7, 2021
Current ATIS data is provided courtisy of PilotEdge.